EW1297 Weather Reports


time (UTC)temp
C
wind
direction
speed
KPH
gust
KPH
rain 1hr
cm
rain 24hr
cm
rain mn
cm
humidity
%
barometer
mb
20260510190115 22 0.0 0.0 0.00 0.28 0.00 66 1013.3
20260510185116 22 0.0 1.6 0.00 0.28 0.00 64 1013.3
20260510184115 22 0.0 0.0 0.00 0.28 0.00 61 1013.3
20260510183136 22 0.0 0.0 0.00 0.28 0.00 63 1013.3
20260510182115 22 0.0 0.0 0.00 0.30 0.00 64 1013.3
20260510181115 22 0.0 0.0 0.00 0.30 0.00 64 1013.4
20260510180115 22 0.0 0.0 0.00 0.30 0.00 65 1013.4
20260510175115 23 0.0 0.0 0.00 0.30 0.00 62 1013.4
20260510174115 23 90 1.6 3.2 0.00 0.30 0.00 61 1013.2
20260510173115 23 0.0 3.2 0.00 0.36 0.00 64 1013.1
20260510172115 22 0.0 1.6 0.00 0.36 0.00 66 1013.3
20260510171115 22 0.0 3.2 0.00 0.36 0.00 67 1013.1
20260510170115 22 68 1.6 4.8 0.00 0.36 0.00 70 1013.3
20260510165115 21 0.0 1.6 0.00 0.36 0.00 73 1013.3
20260510164115 21 0.0 0.0 0.00 0.36 0.00 75 1013.5
20260510163115 20 68 1.6 3.2 0.00 0.36 0.00 76 1013.6
20260510162115 20 90 1.6 3.2 0.00 0.36 0.00 75 1013.6
20260510161115 20 0.0 1.6 0.00 0.36 0.00 77 1013.7
20260510160115 19 0.0 1.6 0.00 0.36 0.00 81 1013.7
20260510155115 18 0.0 0.0 0.00 0.36 0.00 84 1013.5
20260510154115 17 0.0 1.6 0.00 0.36 0.00 84 1013.7
20260510153137 17 0.0 1.6 0.00 0.36 0.00 85 1013.9
20260510152117 16 113 1.6 4.8 0.00 0.36 0.00 87 1013.8
20260510151117 16 0.0 1.6 0.00 0.36 0.00 90 1013.7
20260510150117 15 0.0 0.0 0.00 0.36 0.00 91 1013.8
20260510145118 15 0.0 0.0 0.00 0.36 0.00 91 1014.0
20260510144117 15 0.0 1.6 0.00 0.36 0.00 91 1013.9
20260510143137 15 0.0 0.0 0.00 0.36 0.00 92 1013.8
20260510142117 14 0.0 1.6 0.00 0.36 0.00 93 1013.7
20260510141117 13 0.0 3.2 0.00 0.36 0.00 93 1013.8
20260510140117 13 0.0 3.2 0.00 0.36 0.00 94 1013.5
20260510135117 13 0.0 1.6 0.00 0.36 0.00 94 1013.6
20260510134117 13 0.0 0.0 0.00 0.36 0.00 94 1013.5
20260510133117 13 0.0 0.0 0.00 0.36 0.00 95 1013.6
20260510132137 12 0.0 0.0 0.00 0.36 0.00 95 1013.5
20260510131117 12 0.0 0.0 0.00 0.36 0.00 95 1013.4
20260510130117 12 0.0 1.6 0.00 0.36 0.00 95 1013.3
20260510125117 12 0.0 0.0 0.00 0.36 0.00 95 1013.0
20260510124117 12 0.0 0.0 0.00 0.36 0.00 95 1013.1
20260510123117 12 0.0 0.0 0.00 0.36 0.00 95 1013.1
20260510122117 12 0.0 0.0 0.00 0.36 0.00 95 1012.8
20260510121117 12 0.0 0.0 0.00 0.36 0.00 95 1012.8
20260510120117 12 0.0 0.0 0.00 0.36 0.00 96 1012.7
20260510115117 11 0.0 0.0 0.00 0.36 0.00 95 1012.8
20260510114117 11 0.0 0.0 0.00 0.36 0.00 95 1012.7
20260510113117 11 0.0 0.0 0.00 0.36 0.00 96 1012.6
20260510112137 11 0.0 0.0 0.00 0.36 0.00 95 1012.4
20260510111117 11 0.0 0.0 0.00 0.36 0.00 95 1012.4
20260510110117 11 0.0 0.0 0.00 0.36 0.00 96 1012.1
20260510105117 11 0.0 0.0 0.00 0.36 0.00 95 1011.9
20260510104117 10 0.0 0.0 0.00 0.36 0.00 95 1012.0
20260510103137 10 0.0 0.0 0.00 0.36 0.00 95 1012.0
20260510102117 10 0.0 0.0 0.00 0.36 0.00 95 1012.1
20260510101117 10 0.0 0.0 0.00 0.36 0.00 95 1011.9
20260510100116 10 0.0 0.0 0.00 0.36 0.00 95 1012.2
20260510094116 10 0.0 0.0 0.00 0.36 0.00 95 1012.2
20260510093117 10 0.0 0.0 0.00 0.36 0.00 95 1012.2
20260510092117 11 0.0 0.0 0.00 0.36 0.00 95 1012.2
20260510091117 11 0.0 0.0 0.00 0.36 0.00 95 1012.3
20260510090117 11 0.0 0.0 0.00 0.36 0.00 95 1012.5
20260510085137 11 0.0 0.0 0.00 0.36 0.00 95 1012.5
20260510084116 11 0.0 0.0 0.00 0.36 0.00 95 1012.6
20260510083116 11 0.0 0.0 0.00 0.36 0.00 95 1012.4
20260510082117 11 0.0 0.0 0.00 0.36 0.00 95 1012.3
20260510081137 11 0.0 0.0 0.00 0.36 0.00 95 1011.9
20260510080136 10 0.0 0.0 0.00 0.36 0.00 95 1011.7
20260510075116 10 0.0 0.0 0.00 0.36 0.00 95 1011.6
20260510074117 10 0.0 0.0 0.00 0.36 0.00 95 1011.5
20260510073137 11 0.0 0.0 0.00 0.36 0.00 95 1011.5
20260510072116 11 0.0 0.0 0.00 0.36 0.00 95 1011.5
20260510071136 11 0.0 0.0 0.00 0.36 0.00 95 1011.5
20260510070116 10 0.0 0.0 0.00 0.36 0.00 95 1011.6
20260510065116 10 0.0 0.0 0.00 0.36 0.00 95 1011.6
20260510064116 10 0.0 0.0 0.00 0.36 0.00 95 1011.7
20260510063141 10 0.0 0.0 0.00 0.36 0.00 95 1011.6
20260510062716 10 0.0 0.0 0.00 0.36 0.00 95 1011.5
20260510061716 10 0.0 0.0 0.00 0.36 0.00 95 1011.4
20260510060716 10 0.0 0.0 0.00 0.36 0.00 95 1011.2
20260510055716 10 0.0 0.0 0.00 0.36 0.00 94 1011.3
20260510054736 10 0.0 0.0 0.00 0.36 0.00 94 1011.5
20260510053716 10 0.0 0.0 0.00 0.36 0.00 94 1011.4
20260510052716 10 0.0 0.0 0.00 0.36 0.00 94 1011.6
20260510051716 10 0.0 0.0 0.00 0.36 0.00 94 1011.5
20260510050736 10 0.0 0.0 0.00 0.36 0.00 94 1011.5
20260510045736 10 0.0 0.0 0.00 0.36 0.00 94 1011.6
20260510044716 10 0.0 0.0 0.00 0.36 0.00 94 1011.6
20260510043716 10 0.0 0.0 0.00 0.36 0.00 94 1011.7
20260510042756 10 0.0 0.0 0.00 0.36 0.00 94 1011.8
20260510041716 9 0.0 0.0 0.00 0.36 0.00 94 1011.7
20260510040716 10 0.0 0.0 0.00 0.36 0.00 94 1011.6
20260510035736 10 0.0 0.0 0.00 0.36 0.36 94 1011.5
20260510034716 10 0.0 0.0 0.00 0.36 0.36 94 1011.5
20260510033717 10 0.0 0.0 0.00 0.36 0.36 94 1011.4
20260510032716 10 0.0 0.0 0.00 0.36 0.36 94 1011.2
20260510031736 10 0.0 0.0 0.00 0.36 0.36 94 1011.3
20260510030736 10 0.0 0.0 0.00 0.36 0.36 94 1011.2
20260510025716 10 0.0 0.0 0.00 0.36 0.36 94 1011.2
20260510024757 10 0.0 0.0 0.00 0.36 0.36 94 1011.2
20260510023716 10 0.0 0.0 0.00 0.36 0.36 94 1011.2
20260510022716 10 0.0 0.0 0.00 0.36 0.36 94 1011.3
20260510021716 10 0.0 0.0 0.00 0.36 0.36 94 1011.3
20260510020736 10 0.0 0.0 0.00 0.36 0.36 94 1011.3
20260510015716 10 0.0 0.0 0.00 0.36 0.36 94 1011.2
20260510014716 10 0.0 0.0 0.00 0.36 0.36 93 1011.2
20260510013716 10 0.0 0.0 0.00 0.36 0.36 93 1011.1
20260510012716 10 0.0 0.0 0.00 0.36 0.36 93 1011.2
20260510011716 10 0.0 0.0 0.00 0.36 0.36 93 1011.0
20260510010716 11 0.0 0.0 0.00 0.36 0.36 93 1011.0
20260510005716 11 0.0 0.0 0.00 0.36 0.36 93 1010.8
20260510004736 11 0.0 0.0 0.00 0.36 0.36 93 1010.7
20260510003716 11 0.0 0.0 0.00 0.36 0.36 93 1010.6
20260510002716 11 0.0 0.0 0.00 0.36 0.36 93 1010.5
20260510001756 11 0.0 0.0 0.00 0.36 0.36 93 1010.5
20260510000716 12 0.0 0.0 0.00 0.36 0.36 93 1010.6
20260509235716 12 0.0 0.0 0.00 0.36 0.36 93 1010.5
20260509234716 12 0.0 0.0 0.00 0.36 0.36 93 1010.4
20260509233716 12 0.0 0.0 0.00 0.36 0.36 93 1010.3
20260509232716 12 0.0 0.0 0.00 0.36 0.36 93 1010.1
20260509231716 12 0.0 0.0 0.00 0.36 0.36 93 1010.2
20260509230716 12 0.0 0.0 0.03 0.36 0.36 93 1010.4
20260509225716 12 0.0 0.0 0.05 0.36 0.36 93 1010.5
20260509224716 12 0.0 0.0 0.08 0.36 0.36 93 1010.5
20260509223716 12 0.0 0.0 0.10 0.36 0.36 93 1010.7
20260509222716 12 0.0 0.0 0.13 0.36 0.36 92 1010.7
20260509221736 12 0.0 0.0 0.18 0.36 0.36 92 1010.8
20260509220716 12 0.0 0.0 0.20 0.33 0.33 92 1010.9
20260509215716 12 0.0 0.0 0.20 0.30 0.30 92 1010.9
20260509214716 12 0.0 0.0 0.18 0.28 0.28 91 1010.7
20260509213716 12 0.0 0.0 0.15 0.25 0.25 91 1011.4
20260509212716 12 0.0 0.0 0.13 0.23 0.23 91 1010.9
20260509211716 12 0.0 0.0 0.08 0.18 0.18 90 1010.7
20260509210716 13 0.0 0.0 0.03 0.13 0.13 90 1011.2
20260509205716 13 0.0 0.0 0.00 0.10 0.10 90 1010.8
20260509204716 13 0.0 0.0 0.03 0.10 0.10 90 1010.7
20260509203736 13 0.0 0.0 0.03 0.10 0.10 89 1011.0
20260509202716 13 0.0 0.0 0.03 0.10 0.10 90 1011.0
20260509201716 13 0.0 0.0 0.03 0.10 0.10 90 1011.1
20260509200716 13 0.0 0.0 0.03 0.10 0.10 89 1011.1
20260509195715 13 0.0 0.0 0.03 0.10 0.10 89 1011.1
20260509193716 13 0.0 0.0 0.00 0.08 0.08 89 1011.3
20260509192716 13 0.0 0.0 0.00 0.08 0.08 89 1011.3
20260509191715 13 0.0 0.0 0.03 0.08 0.08 89 1011.1